• In Hungary
  • List of Countries
  • For 7 days
  • Water Temperature
  • Satellite Maps
  • Weather Map
  • News
  • Weather Widgets
  • user-avatar
    Login

    Hourly Weather Galcha

    Today, 19 October, Friday

    Time Temperature Precipitation Wind Pressure Humidity
    00:00 +9°C° 0 mm 1 mps 732 mmHg 34%
    01:00 +8°C° 0 mm 1 mps 731 mmHg 34%
    02:00 +8°C° 0 mm 1 mps 731 mmHg 35%
    03:00 +7°C° 0 mm 0 mps 732 mmHg 35%
    04:00 +7°C° 0 mm 0 mps 732 mmHg 35%
    05:00 +8°C° 0 mm 0 mps 732 mmHg 35%
    06:00 +8°C° 0 mm 0 mps 732 mmHg 34%
    07:00 +10°C° 0 mm 1 mps 733 mmHg 34%
    08:00 +10°C° 0 mm 1 mps 733 mmHg 33%
    09:00 +11°C° 0 mm 1 mps 733 mmHg 31%
    10:00 +13°C° 0 mm 1 mps 732 mmHg 28%
    11:00 +14°C° 0 mm 1 mps 732 mmHg 25%
    12:00 +15°C° 0 mm 1 mps 732 mmHg 25%
    13:00 +15°C° 0 mm 1 mps 732 mmHg 25%
    14:00 +16°C° 0 mm 2 mps 732 mmHg 24%
    15:00 +15°C° 0 mm 2 mps 732 mmHg 27%
    16:00 +15°C° 0 mm 2 mps 733 mmHg 29%
    17:00 +14°C° 0 mm 2 mps 733 mmHg 31%
    18:00 +13°C° 0 mm 2 mps 733 mmHg 33%
    19:00 +12°C° 0 mm 2 mps 734 mmHg 34%
    20:00 +10°C° 0 mm 2 mps 735 mmHg 35%
    21:00 +10°C° 0 mm 2 mps 734 mmHg 36%
    22:00 +10°C° 0 mm 2 mps 734 mmHg 36%
    23:00 +10°C° 0 mm 2 mps 734 mmHg 37%

    Tomorrow, 20 October, Saturday

    Time Temperature Precipitation Wind Pressure Humidity
    00:00 +9°C° 0 mm 2 mps 734 mmHg 37%
    01:00 +9°C° 0 mm 2 mps 734 mmHg 37%
    02:00 +10°C° 0 mm 1 mps 734 mmHg 38%
    03:00 +10°C° 0 mm 1 mps 734 mmHg 38%
    04:00 +10°C° 0 mm 1 mps 733 mmHg 38%
    05:00 +10°C° 0 mm 1 mps 733 mmHg 39%
    06:00 +10°C° 0 mm 1 mps 733 mmHg 38%
    07:00 +11°C° 0 mm 1 mps 733 mmHg 38%
    08:00 +12°C° 0 mm 1 mps 733 mmHg 37%
    09:00 +13°C° 0 mm 1 mps 733 mmHg 34%
    10:00 +14°C° 0 mm 1 mps 733 mmHg 31%
    11:00 +16°C° 0 mm 1 mps 733 mmHg 28%
    12:00 +16°C° 0 mm 1 mps 733 mmHg 27%
    13:00 +18°C° 0 mm 1 mps 732 mmHg 26%
    14:00 +19°C° 0 mm 1 mps 732 mmHg 25%
    15:00 +18°C° 0 mm 1 mps 732 mmHg 27%
    16:00 +18°C° 0 mm 1 mps 733 mmHg 29%
    17:00 +16°C° 0 mm 1 mps 733 mmHg 32%
    18:00 +15°C° 0 mm 1 mps 733 mmHg 33%
    19:00 +15°C° 0 mm 1 mps 733 mmHg 34%
    20:00 +14°C° 0 mm 2 mps 734 mmHg 34%
    21:00 +13°C° 0 mm 2 mps 734 mmHg 36%
    22:00 +13°C° 0 mm 2 mps 734 mmHg 37%
    23:00 +13°C° 0 mm 2 mps 734 mmHg 39%

    Day after tomorrow, 21 October, Sunday

    Time Temperature Precipitation Wind Pressure Humidity
    00:00 +12°C° 0 mm 2 mps 733 mmHg 39%
    01:00 +12°C° 0 mm 2 mps 733 mmHg 40%
    02:00 +12°C° 0 mm 2 mps 733 mmHg 41%
    03:00 +10°C° 0 mm 2 mps 733 mmHg 41%
    04:00 +10°C° 0 mm 2 mps 733 mmHg 41%
    05:00 +10°C° 0 mm 2 mps 733 mmHg 41%
    06:00 +12°C° 0 mm 1 mps 733 mmHg 40%
    07:00 +12°C° 0 mm 1 mps 733 mmHg 39%
    08:00 +13°C° 0 mm 1 mps 733 mmHg 38%
    09:00 +15°C° 0 mm 1 mps 733 mmHg 34%
    10:00 +18°C° 0 mm 1 mps 733 mmHg 29%
    11:00 +20°C° 0 mm 1 mps 732 mmHg 25%
    12:00 +21°C° 0 mm 1 mps 732 mmHg 23%
    13:00 +22°C° 0 mm 1 mps 732 mmHg 22%
    14:00 +23°C° 0 mm 1 mps 732 mmHg 20%
    15:00 +22°C° 0 mm 1 mps 732 mmHg 23%
    16:00 +21°C° 0 mm 1 mps 732 mmHg 25%
    17:00 +20°C° 0 mm 1 mps 732 mmHg 27%
    18:00 +19°C° 0 mm 1 mps 732 mmHg 28%
    19:00 +18°C° 0 mm 1 mps 732 mmHg 29%
    20:00 +16°C° 0 mm 1 mps 733 mmHg 30%
    21:00 +16°C° 0 mm 1 mps 733 mmHg 31%
    22:00 +15°C° 0 mm 2 mps 732 mmHg 31%
    23:00 +15°C° 0 mm 2 mps 732 mmHg 32%

    22 October, Monday

    Time Temperature Precipitation Wind Pressure Humidity
    00:00 +14°C° 0 mm 2 mps 732 mmHg 32%
    01:00 +14°C° 0 mm 2 mps 732 mmHg 33%
    02:00 +14°C° 0 mm 2 mps 731 mmHg 33%
    03:00 +13°C° 0 mm 2 mps 731 mmHg 33%
    04:00 +13°C° 0 mm 1 mps 731 mmHg 33%
    05:00 +13°C° 0 mm 1 mps 731 mmHg 33%
    06:00 +13°C° 0 mm 1 mps 731 mmHg 32%
    07:00 +14°C° 0 mm 1 mps 731 mmHg 31%
    08:00 +15°C° 0 mm 1 mps 731 mmHg 31%
    09:00 +18°C° 0 mm 1 mps 730 mmHg 27%
    10:00 +20°C° 0 mm 1 mps 730 mmHg 23%
    11:00 +21°C° 0 mm 1 mps 730 mmHg 20%
    12:00 +22°C° 0 mm 1 mps 729 mmHg 19%
    13:00 +23°C° 0 mm 1 mps 729 mmHg 18%
    14:00 +24°C° 0 mm 1 mps 729 mmHg 17%
    15:00 +23°C° 0 mm 1 mps 729 mmHg 19%
    16:00 +22°C° 0 mm 1 mps 729 mmHg 21%
    17:00 +21°C° 0 mm 1 mps 729 mmHg 24%
    18:00 +20°C° 0 mm 1 mps 729 mmHg 25%
    19:00 +19°C° 0 mm 1 mps 729 mmHg 25%
    20:00 +18°C° 0 mm 1 mps 730 mmHg 26%
    21:00 +16°C° 0 mm 1 mps 729 mmHg 27%
    22:00 +16°C° 0 mm 1 mps 729 mmHg 27%
    23:00 +16°C° 0 mm 2 mps 729 mmHg 28%

    23 October, Tuesday

    Time Temperature Precipitation Wind Pressure Humidity
    00:00 +15°C° 0 mm 2 mps 729 mmHg 28%
    01:00 +15°C° 0 mm 2 mps 729 mmHg 28%
    02:00 +14°C° 0 mm 2 mps 729 mmHg 29%
    03:00 +14°C° 0 mm 2 mps 729 mmHg 28%
    04:00 +14°C° 0 mm 2 mps 729 mmHg 28%
    05:00 +13°C° 0 mm 2 mps 729 mmHg 28%
    06:00 +14°C° 0 mm 1 mps 729 mmHg 28%
    07:00 +15°C° 0 mm 1 mps 729 mmHg 28%
    08:00 +15°C° 0 mm 1 mps 729 mmHg 27%
    09:00 +18°C° 0 mm 1 mps 729 mmHg 24%
    10:00 +20°C° 0 mm 1 mps 728 mmHg 21%
    11:00 +22°C° 0 mm 1 mps 728 mmHg 18%
    12:00 +22°C° 0 mm 1 mps 728 mmHg 17%
    13:00 +23°C° 0 mm 1 mps 728 mmHg 17%
    14:00 +23°C° 0 mm 1 mps 728 mmHg 16%
    15:00 +23°C° 0 mm 1 mps 728 mmHg 19%
    16:00 +22°C° 0 mm 1 mps 728 mmHg 21%
    17:00 +21°C° 0 mm 1 mps 728 mmHg 23%
    18:00 +20°C° 0 mm 1 mps 728 mmHg 23%
    19:00 +20°C° 0 mm 1 mps 728 mmHg 24%
    20:00 +19°C° 0 mm 1 mps 729 mmHg 24%
    21:00 +19°C° 0 mm 1 mps 729 mmHg 25%
    22:00 +18°C° 0 mm 1 mps 729 mmHg 25%
    23:00 +18°C° 0 mm 1 mps 729 mmHg 25%

    24 October, Wednesday

    Time Temperature Precipitation Wind Pressure Humidity
    00:00 +18°C° 0 mm 1 mps 729 mmHg 26%
    01:00 +16°C° 0 mm 1 mps 728 mmHg 26%
    02:00 +16°C° 0 mm 1 mps 728 mmHg 26%
    03:00 +15°C° 0 mm 1 mps 728 mmHg 27%
    04:00 +15°C° 0 mm 2 mps 729 mmHg 27%
    05:00 +14°C° 0 mm 2 mps 729 mmHg 27%
    06:00 +15°C° 0 mm 2 mps 729 mmHg 27%
    07:00 +15°C° 0 mm 2 mps 729 mmHg 27%
    08:00 +16°C° 0 mm 1 mps 729 mmHg 27%
    09:00 +18°C° 0 mm 1 mps 729 mmHg 24%
    10:00 +20°C° 0 mm 1 mps 729 mmHg 21%
    11:00 +22°C° 0 mm 1 mps 729 mmHg 19%
    12:00 +22°C° 0 mm 1 mps 729 mmHg 18%
    13:00 +23°C° 0 mm 1 mps 729 mmHg 17%
    14:00 +24°C° 0 mm 1 mps 729 mmHg 17%
    15:00 +23°C° 0 mm 1 mps 729 mmHg 19%
    16:00 +22°C° 0 mm 1 mps 729 mmHg 21%
    17:00 +21°C° 0 mm 1 mps 729 mmHg 24%
    18:00 +20°C° 0 mm 1 mps 729 mmHg 24%
    19:00 +19°C° 0 mm 1 mps 729 mmHg 25%
    20:00 +18°C° 0 mm 1 mps 730 mmHg 25%
    21:00 +17°C° 0 mm 2 mps 729 mmHg 26%
    22:00 +16°C° 0 mm 2 mps 729 mmHg 26%
    23:00 +16°C° 0 mm 2 mps 729 mmHg 27%
    Show more